Regional Weather Roundup
Issued by NWS

Home | Current Version | Previous Version | Text Only | Print | Product List | Glossary On
Versions: 1 2 3 4 5 6 7 8 9 10 11 12 13 14 15 16 17 18 19 20 21 22 23 24 25 26 27 28 29 30 31 32 33 34 35 36 37 38 39 40 41 42 43 44 45 46 47 48 49 50
000
ASUS43 KDTX 070910
RWRMI
MICHIGAN HOURLY REGIONAL WEATHER ROUNDUP
NATIONAL WEATHER SERVICE DETROIT/PONTIAC MI
ISSUED BY NATIONAL WEATHER SERVICE GRAND RAPIDS MI
500 AM EDT THU MAY 07 2015

NOTE: "FAIR" INDICATES FEW OR NO CLOUDS BELOW 12,000 FEET WITH NO
SIGNIFICANT WEATHER AND/OR OBSTRUCTION TO VISIBILITY.

MIZ047>049-052>055-059>063-066>070-074>076-081>083-071000-
SOUTHEAST LOWER MICHIGAN

CITY           SKY/WX    TMP DP  RH WIND       PRES   REMARKS
ADRIAN         FOG       51  50  96 N3        30.16S VSB 3/4
ALMA           FOG       52  52  98 CALM      30.15R VSB 1/4
ANN ARBOR      FOG       50  49  96 CALM      30.16R VSB 3/4
BAD AXE        CLEAR     50  47  88 CALM      30.16S FOG
DETROIT CITY   FAIR      55  53  93 S3        30.17R FOG
DETROIT        PTCLDY    55  52  89 CALM      30.17R FOG
FLINT          CLEAR     55  53  93 S6        30.15S FOG
GROSSE ILE     FOG       52  48  87 CALM      30.15S VSB 1/2
HILLSDALE      CLEAR     59  57  94 SE7       30.15S
HOWELL         CLEAR     56  55  96 SE3       30.15S FOG

CITY           SKY/WX    TMP DP  RH WIND       PRES   REMARKS
JACKSON        CLEAR     55  52  89 SE5       30.15S
LANSING        CLEAR     58  55  90 S3        30.15R FOG
MASON          CLEAR     55  53  94 S3        30.15R FOG
MONROE         FOG       52  52 100 E3        30.14S VSB 3/4
MT. CLEMENS    CLEAR     52  50  93 CALM      30.14S FOG
PONTIAC        PTCLDY    53  52  96 SE3       30.16R FOG
PORT HOPE        N/A     51  44  77 SE3       30.14S
PORT HURON     CLEAR     45  45 100 CALM      30.17S FOG
TRI CITIES     CLEAR     54  50  86 CALM      30.15S FOG
YPSILANTI      HAZE      54  49  83 NE3       30.16S VSB 1
$$
MIZ043>046-050>051-056>058-064>065-071>073-077>080-071000-
SOUTHWEST LOWER MICHIGAN

CITY           SKY/WX    TMP DP  RH WIND       PRES   REMARKS
BATTLE CREEK   PTCLDY    59  55  87 SE6       30.14S
BENTON HARBOR  CLEAR     61  58  90 SE9       30.09S FOG
BIG RAPIDS     PTCLDY    56  54  92 CALM      30.12S FOG
COLDWATER      PTCLDY    58  54  88 SE6       30.13F
HOLLAND        CLEAR     61  57  87 SE8       30.10F
GRAND RAPIDS   PTCLDY    59  55  87 SE7       30.12S
KALAMAZOO      PTCLDY    58  54  86 CALM      30.13S
MARSHALL       PTCLDY    55  54  95 S6        30.14S FOG
MOUNT PLEASANT PTCLDY    51  50  96 CALM      30.14R FOG
MUSKEGON       CLEAR     63  58  83 SE10      30.09S
STURGIS        CLEAR     57  55  94 SE7       30.12F
$$
MIZ016>042-071000-
NORTHERN LOWER MICHIGAN

CITY           SKY/WX    TMP DP  RH WIND       PRES   REMARKS
ALPENA         CLEAR     47  41  80 CALM      30.14F
BEAVER ISLAND  PTCLDY    50  44  79 SE3       30.08F
BELLAIRE       PTCLDY    56  52  85 CALM      30.10S
CADILLAC       PTCLDY    55  52  91 CALM      30.12S FOG
CHARLEVOIX     PTCLDY    55  49  78 SE3       30.12S
GAYLORD        MOCLDY    55  51  86 S6        30.13S
HOUGHTON LAKE  PTCLDY    50  47  89 CALM      30.14S
MANISTEE       PTCLDY    57  52  82 E7        30.09S
OSCODA         PTCLDY    43  39  88 CALM      30.15S
PELLSTON       CLOUDY    51  45  79 CALM      30.10F
TRAVERSE CITY  PTCLDY    61  53  75 CALM      30.08S
LUDINGTON      PTCLDY    64  59  82 SE6       30.08S
$$
MIZ007>008-015-071000-
EASTERN UPPER MICHIGAN

CITY           SKY/WX    TMP DP  RH WIND       PRES   REMARKS
KINROSS        CLEAR     48  45  87 E7        30.12R
MACKINAC ISLAN CLOUDY    43  40  88 SE7       30.10S
NEWBERRY       MOCLDY    50  42  75 SE3       30.09R
S. S. MARIE    CLEAR     49  41  74 E3        30.12S
$$
MIZ004>006-011>014-085-071000-
CENTRAL UPPER MICHIGAN

CITY           SKY/WX    TMP DP  RH WIND       PRES   REMARKS
MANISTIQUE     PTCLDY    49  42  76 SE6       30.07F
ESCANABA       PTCLDY    43  37  81 CALM      30.05F
MENOMINEE      PTCLDY    46  39  76 CALM      30.04F
$$
MIZ001>003-009>011-084-071000-
WESTERN UPPER MICHIGAN

CITY           SKY/WX    TMP DP  RH WIND       PRES   REMARKS
IRON MOUNTAIN  CLEAR     50  44  80 SE3       30.03F
HOUGHTON       CLOUDY    55  47  74 SE6       29.97F
COPPER HARBOR    N/A     53  47  79 SW10G20   29.96F
IRONWOOD       MOCLDY    63  55  77 S10G18    29.90S
$$

ABBREVIATIONS USED IN REMARKS
   TC - TEMPERATURE IN CELSIUS
  WCI - WIND CHILL INDEX
   HX - HEAT INDEX
  VSB - VISIBILITY



USA.gov is the U.S. government's official web portal to all federal, state and local government web resources and services.